User: anonymous   Login
Location: *
(43.9900°N, 3.4811°E)
Time: 10:51:05
(UTC+00:00)
Language:

Mayak - Orbit

View from above orbital plane
View from above orbital plane
View from above satellite
View from above satellite

Ground track
Ground track

The orbit data is extracted from the following two-line orbital elements,

1 42830U 17042F   19287.77467385  .00000806  00000-0  84871-4 0  9991
2 42830  97.5524 176.5094 0015161  27.3524 332.8490 14.91914607122578
Epoch (UTC): 14 October 2019 18:35:31
Eccentricity: 0.0015161
inclination: 97.5524°
perigee height: 581 km
apogee height: 602 km
right ascension of ascending node: 176.5094°
argument of perigee: 27.3524°
revolutions per day: 14.91914607
mean anomaly at epoch: 332.8490°
orbit number at epoch: 12257

The dashed part of the orbit path shows where the satellite is in the earth's shadow,  

DLR